星链-3822 (STARLINK-3822 )

导读 | 星芒AI

STARLINK-3822 是 SpaceX Starlink 项目中的一颗低轨通信卫星,属于第三代星链卫星(v1.5 或 v2 版本)。它于 2023 年发射,部署在约 550 公里的轨道高度,旨在为全球提供高速互联网服务。该卫星采用先进推进系统和激光通信技术,提升网络性能与连接稳定性。作为星链星座的一部分,STARLINK-3822 支持偏远地区互联网接入,推动全球数字包容性发展。

基本信息
目录编号:
52287
目录名称:
STARLINK-3822
国际标识:
2022-041AC
轨道中心:
EARTH
卫星名称:
星链-3822
卫星全名:
星链-3822 (STARLINK-3822 )
卫星状态:
在轨 (已飞行1293 天)
发射日期:
2022-04-21 UTC
国别 :
美国 (US)
星等 :
--
轨道信息
数据来源 国际轨道数据
星历时间: 2025-11-04T15:50:39+0800
13小时前
查看轨道信息
半长轴: 6917.871km
偏心率: 0.0001198
轨道倾角: 53.217°
近地点辐角 96.434°
升交点赤经 311.896°
平近点角 263.679°
近地点: 538.907km
远地点: 540.565km
周期: 95.437分钟
每日圈数: 15.088432
详细信息
固有亮度:
5
最大亮度:
2.5
卫星平台:
Starlink v1.5
覆盖范围:
全球
运营商:
太空探索技术公司
运营商所在国:
美国
制造商(研发单位):
太空探索技术公司
制造商所在国:
美国
使用方式:
暂无
卫星简介
星链(Starlink)计划是由太空探索技术公司(SpaceX)提出的一个巨型低轨卫星互联网星座项目,计划在2019年至2024年间在太空搭建由约1.2万颗卫星组成的“星链”网络,其中1584颗将部署在地球上空550千米处的近地轨道,并从2020年开始工作。该卫星仍在工作。
2D轨道图
3D轨道图
轨道高度分析图
轨道倾角分析图
轨道综合分析图
查看轨道综合分析图